Time,TemperatureF,DewpointF,PressureIn,WindDirection,WindDirectionDegrees,WindSpeedMPH,WindSpeedGustMPH,Humidity,HourlyPrecipIn,Conditions,Clouds,dailyrainin,SoftwareType,DateUTC
2013-03-09 00:00:00,48.6,40.1,30.12,ENE,68,0.0,0.0,72,0.00,,---,0.00,VWS V14.01,2013-03-09 05:00:00,
2013-03-09 00:05:00,48.6,40.1,30.12,ENE,68,0.0,0.0,72,0.00,,---,0.00,VWS V14.01,2013-03-09 05:05:00,
2013-03-09 00:10:00,48.4,40.3,30.12,ENE,68,0.0,0.0,74,0.00,,---,0.00,VWS V14.01,2013-03-09 05:10:00,
2013-03-09 00:15:00,48.4,40.3,30.12,ENE,68,0.0,0.0,74,0.00,,---,0.00,VWS V14.01,2013-03-09 05:15:00,
2013-03-09 00:20:00,48.2,40.5,30.12,ENE,68,0.0,0.0,75,0.00,,---,0.00,VWS V14.01,2013-03-09 05:20:00,
2013-03-09 00:25:00,48.0,40.7,30.12,ENE,68,0.0,0.0,76,0.00,,---,0.00,VWS V14.01,2013-03-09 05:25:00,
2013-03-09 00:30:00,48.0,40.7,30.12,ENE,68,0.0,0.0,76,0.00,,---,0.00,VWS V14.01,2013-03-09 05:30:00,
2013-03-09 00:35:00,47.8,40.9,30.12,ENE,68,0.0,0.0,77,0.00,,---,0.00,VWS V14.01,2013-03-09 05:35:00,
2013-03-09 00:40:00,47.7,41.0,30.12,ENE,68,0.0,0.0,78,0.00,,---,0.00,VWS V14.01,2013-03-09 05:40:00,
2013-03-09 00:45:00,47.5,40.9,30.12,ENE,68,0.0,0.0,78,0.00,,---,0.00,VWS V14.01,2013-03-09 05:45:00,
2013-03-09 00:50:00,47.5,40.9,30.12,ENE,68,0.0,0.0,78,0.00,,---,0.00,VWS V14.01,2013-03-09 05:50:00,
2013-03-09 00:55:00,47.3,40.7,30.12,ENE,68,0.0,0.0,78,0.00,,---,0.00,VWS V14.01,2013-03-09 05:55:00,
2013-03-09 01:00:00,47.3,40.7,30.12,ENE,68,0.0,0.0,78,0.00,,---,0.00,VWS V14.01,2013-03-09 06:00:00,
2013-03-09 01:05:00,47.3,41.0,30.12,ENE,68,0.0,0.0,79,0.00,,---,0.00,VWS V14.01,2013-03-09 06:05:00,
2013-03-09 01:10:00,47.1,40.9,30.12,ENE,68,0.0,0.0,79,0.00,,---,0.00,VWS V14.01,2013-03-09 06:10:00,
2013-03-09 01:15:00,47.1,40.9,30.12,ENE,68,0.0,0.0,79,0.00,,---,0.00,VWS V14.01,2013-03-09 06:15:00,
2013-03-09 01:20:00,47.1,41.2,30.12,ENE,68,0.0,0.0,80,0.00,,---,0.00,VWS V14.01,2013-03-09 06:20:00,
2013-03-09 01:25:00,46.9,41.0,30.12,ENE,68,0.0,0.0,80,0.00,,---,0.00,VWS V14.01,2013-03-09 06:25:00,
2013-03-09 01:30:00,46.8,40.9,30.12,ENE,68,0.0,0.0,80,0.00,,---,0.00,VWS V14.01,2013-03-09 06:30:00,
2013-03-09 01:35:00,46.8,40.9,30.12,ENE,68,0.0,0.0,80,0.00,,---,0.00,VWS V14.01,2013-03-09 06:35:00,
2013-03-09 01:40:00,46.8,40.9,30.12,ENE,68,0.0,0.0,80,0.00,,---,0.00,VWS V14.01,2013-03-09 06:40:00,
2013-03-09 01:45:00,46.6,40.7,30.12,ENE,68,0.0,0.0,80,0.00,,---,0.00,VWS V14.01,2013-03-09 06:45:00,
2013-03-09 01:50:00,46.6,40.7,30.12,ENE,68,0.0,0.0,80,0.00,,---,0.00,VWS V14.01,2013-03-09 06:50:00,
2013-03-09 01:55:00,46.6,40.7,30.12,ENE,68,0.0,0.0,80,0.00,,---,0.00,VWS V14.01,2013-03-09 06:55:00,
2013-03-09 02:00:00,46.6,40.7,30.12,ENE,68,0.0,0.0,80,0.00,,---,0.00,VWS V14.01,2013-03-09 07:00:00,
2013-03-09 02:05:00,46.6,40.7,30.12,ENE,68,0.0,0.0,80,0.00,,---,0.00,VWS V14.01,2013-03-09 07:05:00,
2013-03-09 02:10:00,46.4,40.5,30.12,ENE,68,0.0,0.0,80,0.00,,---,0.00,VWS V14.01,2013-03-09 07:10:00,
2013-03-09 02:15:00,46.4,40.5,30.12,ENE,68,0.0,0.0,80,0.00,,---,0.00,VWS V14.01,2013-03-09 07:15:00,
2013-03-09 02:20:00,46.4,40.8,30.12,ENE,68,0.0,0.0,81,0.00,,---,0.00,VWS V14.01,2013-03-09 07:20:00,
2013-03-09 02:25:00,46.2,40.7,30.12,ENE,68,0.0,0.0,81,0.00,,---,0.00,VWS V14.01,2013-03-09 07:25:00,
2013-03-09 02:30:00,46.2,40.7,30.12,ENE,68,0.0,0.0,81,0.00,,---,0.00,VWS V14.01,2013-03-09 07:30:00,
2013-03-09 02:35:00,46.0,40.5,30.12,ENE,68,0.0,0.0,81,0.00,,---,0.00,VWS V14.01,2013-03-09 07:35:00,
2013-03-09 02:40:00,46.0,40.5,30.12,ENE,68,0.0,0.0,81,0.00,,---,0.00,VWS V14.01,2013-03-09 07:40:00,
2013-03-09 02:45:00,46.0,40.5,30.12,ENE,68,0.0,0.0,81,0.00,,---,0.00,VWS V14.01,2013-03-09 07:45:00,
2013-03-09 02:50:00,45.9,40.3,30.12,ENE,68,0.0,0.0,81,0.00,,---,0.00,VWS V14.01,2013-03-09 07:50:00,
2013-03-09 02:55:00,45.9,40.3,30.09,ENE,68,0.0,0.0,81,0.00,,---,0.00,VWS V14.01,2013-03-09 07:55:00,
2013-03-09 03:00:00,45.9,40.3,30.09,ENE,68,0.0,0.0,81,0.00,,---,0.00,VWS V14.01,2013-03-09 08:00:00,
2013-03-09 03:05:00,45.9,40.3,30.09,ENE,68,0.0,0.0,81,0.00,,---,0.00,VWS V14.01,2013-03-09 08:05:00,
2013-03-09 03:10:00,45.9,40.3,30.09,ENE,68,0.0,0.0,81,0.00,,---,0.00,VWS V14.01,2013-03-09 08:10:00,
2013-03-09 03:15:00,45.7,40.2,30.09,ENE,68,0.0,0.0,81,0.00,,---,0.00,VWS V14.01,2013-03-09 08:15:00,
2013-03-09 03:20:00,45.5,40.0,30.09,ENE,68,0.0,0.0,81,0.00,,---,0.00,VWS V14.01,2013-03-09 08:20:00,
2013-03-09 03:25:00,45.5,40.3,30.09,ENE,68,0.0,0.0,82,0.00,,---,0.00,VWS V14.01,2013-03-09 08:25:00,
2013-03-09 03:30:00,45.5,40.3,30.09,ENE,68,0.0,0.0,82,0.00,,---,0.00,VWS V14.01,2013-03-09 08:30:00,
2013-03-09 03:35:00,45.3,40.1,30.09,ENE,68,0.0,0.0,82,0.00,,---,0.00,VWS V14.01,2013-03-09 08:35:00,
2013-03-09 03:40:00,45.3,40.1,30.09,ENE,68,0.0,0.0,82,0.00,,---,0.00,VWS V14.01,2013-03-09 08:40:00,
2013-03-09 03:45:00,45.3,40.1,30.09,ENE,68,0.0,0.0,82,0.00,,---,0.00,VWS V14.01,2013-03-09 08:45:00,
2013-03-09 03:50:00,45.3,40.1,30.09,ENE,68,0.0,0.0,82,0.00,,---,0.00,VWS V14.01,2013-03-09 08:50:00,
2013-03-09 03:55:00,45.3,40.1,30.09,ENE,68,0.0,0.0,82,0.00,,---,0.00,VWS V14.01,2013-03-09 08:55:00,
2013-03-09 04:00:00,45.3,40.1,30.09,ENE,68,0.0,0.0,82,0.00,,---,0.00,VWS V14.01,2013-03-09 09:00:00,
2013-03-09 04:05:00,45.3,40.1,30.09,ENE,68,0.0,0.0,82,0.00,,---,0.00,VWS V14.01,2013-03-09 09:05:00,
2013-03-09 04:10:00,45.3,40.1,30.09,ENE,68,0.0,0.0,82,0.00,,---,0.00,VWS V14.01,2013-03-09 09:10:00,
2013-03-09 04:15:00,45.3,40.1,30.09,ENE,68,0.0,0.0,82,0.00,,---,0.00,VWS V14.01,2013-03-09 09:15:00,
2013-03-09 04:20:00,45.3,40.1,30.09,ENE,68,0.0,0.0,82,0.00,,---,0.00,VWS V14.01,2013-03-09 09:20:00,
2013-03-09 04:25:00,45.3,40.5,30.09,ENE,68,0.0,0.0,83,0.00,,---,0.00,VWS V14.01,2013-03-09 09:25:00,
2013-03-09 04:30:00,45.3,40.1,30.09,ENE,68,0.0,0.0,82,0.00,,---,0.00,VWS V14.01,2013-03-09 09:30:00,
2013-03-09 04:35:00,45.3,40.1,30.09,ENE,68,0.0,0.0,82,0.00,,---,0.00,VWS V14.01,2013-03-09 09:35:00,
2013-03-09 04:40:00,45.1,40.0,30.09,ENE,68,0.0,0.0,82,0.00,,---,0.00,VWS V14.01,2013-03-09 09:40:00,
2013-03-09 04:45:00,45.1,40.3,30.09,ENE,68,0.0,0.0,83,0.00,,---,0.00,VWS V14.01,2013-03-09 09:45:00,
2013-03-09 04:50:00,45.1,40.3,30.09,ENE,68,0.0,0.0,83,0.00,,---,0.00,VWS V14.01,2013-03-09 09:50:00,
2013-03-09 04:55:00,45.1,40.3,30.09,ENE,68,0.0,0.0,83,0.00,,---,0.00,VWS V14.01,2013-03-09 09:55:00,
2013-03-09 05:00:00,45.1,40.3,30.09,ENE,68,0.0,0.0,83,0.00,,---,0.00,VWS V14.01,2013-03-09 10:00:00,
2013-03-09 05:05:00,45.1,40.3,30.09,ENE,68,0.0,0.0,83,0.00,,---,0.00,VWS V14.01,2013-03-09 10:05:00,
2013-03-09 05:10:00,45.1,40.3,30.09,ENE,68,0.0,0.0,83,0.00,,---,0.00,VWS V14.01,2013-03-09 10:10:00,
2013-03-09 05:15:00,45.1,40.6,30.09,ENE,68,0.0,0.0,84,0.00,,---,0.00,VWS V14.01,2013-03-09 10:15:00,
2013-03-09 05:20:00,45.1,40.6,30.09,ENE,68,0.0,0.0,84,0.00,,---,0.00,VWS V14.01,2013-03-09 10:20:00,
2013-03-09 05:25:00,45.1,40.9,30.09,ENE,68,0.0,0.0,85,0.00,,---,0.00,VWS V14.01,2013-03-09 10:25:00,
2013-03-09 05:30:00,45.1,40.9,30.09,ENE,68,0.0,0.0,85,0.00,,---,0.00,VWS V14.01,2013-03-09 10:30:00,
2013-03-09 05:35:00,45.3,41.1,30.09,ENE,68,0.0,0.0,85,0.00,,---,0.00,VWS V14.01,2013-03-09 10:35:00,
2013-03-09 05:40:00,45.3,41.1,30.09,ENE,68,0.0,0.0,85,0.00,,---,0.00,VWS V14.01,2013-03-09 10:40:00,
2013-03-09 05:45:00,45.3,41.1,30.09,ENE,68,0.0,0.0,85,0.00,,---,0.00,VWS V14.01,2013-03-09 10:45:00,
2013-03-09 05:50:00,45.3,41.4,30.09,ENE,68,0.0,0.0,86,0.00,,---,0.00,VWS V14.01,2013-03-09 10:50:00,
2013-03-09 05:55:00,45.1,41.2,30.12,ENE,68,0.0,0.0,86,0.00,,---,0.00,VWS V14.01,2013-03-09 10:55:00,
2013-03-09 06:00:00,45.3,41.4,30.12,ENE,68,0.0,0.0,86,0.00,,---,0.00,VWS V14.01,2013-03-09 11:00:00,
2013-03-09 06:05:00,45.1,41.2,30.12,ENE,68,0.0,0.0,86,0.00,,---,0.00,VWS V14.01,2013-03-09 11:05:00,
2013-03-09 06:10:00,45.1,41.2,30.12,ENE,68,0.0,0.0,86,0.00,,---,0.00,VWS V14.01,2013-03-09 11:10:00,
2013-03-09 06:15:00,45.1,41.2,30.12,ENE,68,0.0,0.0,86,0.00,,---,0.00,VWS V14.01,2013-03-09 11:15:00,
2013-03-09 06:20:00,45.0,41.1,30.12,ENE,68,0.0,0.0,86,0.00,,---,0.00,VWS V14.01,2013-03-09 11:20:00,
2013-03-09 06:25:00,45.0,41.1,30.12,ENE,68,0.0,0.0,86,0.00,,---,0.00,VWS V14.01,2013-03-09 11:25:00,
2013-03-09 06:30:00,45.0,41.1,30.12,ENE,68,0.0,0.0,86,0.00,,---,0.00,VWS V14.01,2013-03-09 11:30:00,
2013-03-09 06:35:00,45.0,41.4,30.12,ENE,68,0.0,0.0,87,0.00,,---,0.00,VWS V14.01,2013-03-09 11:35:00,
2013-03-09 06:40:00,45.0,41.4,30.12,ENE,68,0.0,0.0,87,0.00,,---,0.00,VWS V14.01,2013-03-09 11:40:00,
2013-03-09 06:45:00,45.0,41.4,30.12,ENE,68,0.0,0.0,87,0.00,,---,0.00,VWS V14.01,2013-03-09 11:45:00,
2013-03-09 06:50:00,45.0,41.4,30.12,ENE,68,0.0,0.0,87,0.00,,---,0.00,VWS V14.01,2013-03-09 11:50:00,
2013-03-09 06:55:00,45.0,41.4,30.12,ENE,68,0.0,0.0,87,0.00,,---,0.00,VWS V14.01,2013-03-09 11:55:00,
2013-03-09 07:00:00,45.0,41.4,30.12,ENE,68,0.0,0.0,87,0.00,,---,0.00,VWS V14.01,2013-03-09 12:00:00,
2013-03-09 07:05:00,45.1,41.5,30.12,ENE,68,0.0,0.0,87,0.00,,---,0.00,VWS V14.01,2013-03-09 12:05:00,
2013-03-09 07:10:00,45.1,41.5,30.12,ENE,68,0.0,0.0,87,0.00,,---,0.00,VWS V14.01,2013-03-09 12:10:00,
2013-03-09 07:15:00,45.3,41.7,30.12,ENE,68,0.0,0.0,87,0.00,,---,0.00,VWS V14.01,2013-03-09 12:15:00,
2013-03-09 07:20:00,45.5,42.2,30.12,ENE,68,0.0,0.0,88,0.00,,---,0.00,VWS V14.01,2013-03-09 12:20:00,
2013-03-09 07:25:00,45.7,42.4,30.12,ENE,68,0.0,0.0,88,0.00,,---,0.00,VWS V14.01,2013-03-09 12:25:00,
2013-03-09 07:30:00,45.9,42.6,30.12,ENE,68,0.0,0.0,88,0.00,,---,0.00,VWS V14.01,2013-03-09 12:30:00,
2013-03-09 07:35:00,46.4,43.1,30.12,ENE,68,0.0,0.0,88,0.00,,---,0.00,VWS V14.01,2013-03-09 12:35:00,
2013-03-09 07:40:00,46.9,44.0,30.12,ENE,68,0.0,0.0,89,0.00,,---,0.00,VWS V14.01,2013-03-09 12:40:00,
2013-03-09 07:45:00,47.3,44.3,30.12,ENE,68,0.0,0.0,89,0.00,,---,0.00,VWS V14.01,2013-03-09 12:45:00,
2013-03-09 07:50:00,48.0,45.0,30.12,NW,310,0.0,0.0,89,0.00,,---,0.00,VWS V14.01,2013-03-09 12:50:00,
2013-03-09 07:55:00,48.9,45.9,30.15,NW,311,0.0,0.0,89,0.00,,---,0.00,VWS V14.01,2013-03-09 12:55:00,
2013-03-09 08:00:00,50.2,46.8,30.15,NNW,333,0.0,0.0,88,0.00,,---,0.00,VWS V14.01,2013-03-09 13:00:00,
2013-03-09 08:05:00,51.3,47.2,30.15,NNW,337,0.0,0.0,86,0.00,,---,0.00,VWS V14.01,2013-03-09 13:05:00,
2013-03-09 08:10:00,52.3,47.7,30.15,NNW,338,0.0,0.0,84,0.00,,---,0.00,VWS V14.01,2013-03-09 13:10:00,
2013-03-09 08:15:00,53.2,47.5,30.15,North,7,0.0,0.0,81,0.00,,---,0.00,VWS V14.01,2013-03-09 13:15:00,
2013-03-09 08:20:00,53.8,45.5,30.15,NNW,331,0.0,0.0,74,0.00,,---,0.00,VWS V14.01,2013-03-09 13:20:00,
2013-03-09 08:25:00,55.2,45.3,30.15,North,10,3.1,3.1,69,0.00,,---,0.00,VWS V14.01,2013-03-09 13:25:00,
2013-03-09 08:30:00,56.3,43.9,30.15,North,357,0.0,0.0,63,0.00,,---,0.00,VWS V14.01,2013-03-09 13:30:00,
2013-03-09 08:35:00,56.8,42.1,30.15,North,4,0.0,0.0,58,0.00,,---,0.00,VWS V14.01,2013-03-09 13:35:00,
2013-03-09 08:40:00,57.0,39.3,30.15,NNE,15,0.0,0.0,51,0.00,,---,0.00,VWS V14.01,2013-03-09 13:40:00,
2013-03-09 08:45:00,57.7,38.9,30.15,NE,38,0.0,0.0,49,0.00,,---,0.00,VWS V14.01,2013-03-09 13:45:00,
2013-03-09 08:50:00,58.5,36.1,30.15,NNE,20,0.0,0.0,43,0.00,,---,0.00,VWS V14.01,2013-03-09 13:50:00,
2013-03-09 08:55:00,58.8,34.5,30.15,NE,36,0.0,0.0,40,0.00,,---,0.00,VWS V14.01,2013-03-09 13:55:00,
2013-03-09 09:00:00,59.7,34.7,30.15,NNE,25,2.2,2.2,39,0.00,,---,0.00,VWS V14.01,2013-03-09 14:00:00,
2013-03-09 09:05:00,61.2,34.5,30.15,ENE,74,4.0,4.0,37,0.00,,---,0.00,VWS V14.01,2013-03-09 14:05:00,
2013-03-09 09:10:00,61.2,33.8,30.15,NE,50,5.4,5.4,36,0.00,,---,0.00,VWS V14.01,2013-03-09 14:10:00,
2013-03-09 09:15:00,60.4,34.6,30.15,NE,48,5.8,5.8,38,0.00,,---,0.00,VWS V14.01,2013-03-09 14:15:00,
2013-03-09 09:20:00,60.6,34.1,30.15,NE,43,5.8,5.8,37,0.00,,---,0.00,VWS V14.01,2013-03-09 14:20:00,
2013-03-09 09:25:00,61.0,34.4,30.15,NNE,20,3.1,4.9,37,0.00,,---,0.00,VWS V14.01,2013-03-09 14:25:00,
2013-03-09 09:30:00,61.3,34.7,30.15,NNE,28,2.2,2.2,37,0.00,,---,0.00,VWS V14.01,2013-03-09 14:30:00,
2013-03-09 09:35:00,61.3,34.0,30.15,NE,56,4.9,4.9,36,0.00,,---,0.00,VWS V14.01,2013-03-09 14:35:00,
2013-03-09 09:40:00,62.2,35.5,30.15,East,87,0.0,0.0,37,0.00,,---,0.00,VWS V14.01,2013-03-09 14:40:00,
2013-03-09 09:45:00,64.9,34.8,30.15,NE,43,0.0,0.0,33,0.00,,---,0.00,VWS V14.01,2013-03-09 14:45:00,
2013-03-09 09:50:00,67.1,33.2,30.15,NNE,18,0.0,4.9,28,0.00,,---,0.00,VWS V14.01,2013-03-09 14:50:00,
2013-03-09 09:55:00,65.8,33.9,30.18,NE,45,5.8,5.8,30,0.00,,---,0.00,VWS V14.01,2013-03-09 14:55:00,
2013-03-09 10:00:00,64.2,30.8,30.18,NE,56,6.3,6.3,28,0.00,,---,0.00,VWS V14.01,2013-03-09 15:00:00,
2013-03-09 10:05:00,64.4,29.0,30.18,NE,55,8.1,8.1,26,0.00,,---,0.00,VWS V14.01,2013-03-09 15:05:00,
2013-03-09 10:10:00,65.7,30.1,30.18,NNW,330,8.7,8.7,26,0.00,,---,0.00,VWS V14.01,2013-03-09 15:10:00,
2013-03-09 10:15:00,65.1,29.6,30.18,NE,50,7.6,7.6,26,0.00,,---,0.00,VWS V14.01,2013-03-09 15:15:00,
2013-03-09 10:20:00,64.2,28.9,30.18,NE,39,5.8,10.1,26,0.00,,---,0.00,VWS V14.01,2013-03-09 15:20:00,
2013-03-09 10:25:00,63.9,29.5,30.18,NE,44,7.6,11.0,27,0.00,,---,0.00,VWS V14.01,2013-03-09 15:25:00,
2013-03-09 10:30:00,63.7,29.4,30.18,North,357,5.4,5.4,27,0.00,,---,0.00,VWS V14.01,2013-03-09 15:30:00,
2013-03-09 10:35:00,63.7,29.4,30.18,ENE,71,6.3,6.3,27,0.00,,---,0.00,VWS V14.01,2013-03-09 15:35:00,
2013-03-09 10:40:00,63.7,29.4,30.18,ENE,75,8.1,8.1,27,0.00,,---,0.00,VWS V14.01,2013-03-09 15:40:00,
2013-03-09 10:45:00,63.9,29.5,30.18,NE,45,3.6,3.6,27,0.00,,---,0.00,VWS V14.01,2013-03-09 15:45:00,
2013-03-09 10:50:00,64.0,29.7,30.18,ENE,59,2.7,2.7,27,0.00,,---,0.00,VWS V14.01,2013-03-09 15:50:00,
2013-03-09 10:55:00,64.4,29.0,30.18,ENE,73,9.2,9.2,26,0.00,,---,0.00,VWS V14.01,2013-03-09 15:55:00,
2013-03-09 11:00:00,64.4,29.0,30.18,ENE,65,5.8,5.8,26,0.00,,---,0.00,VWS V14.01,2013-03-09 16:00:00,
2013-03-09 11:05:00,64.6,29.2,30.18,NE,47,4.0,4.0,26,0.00,,---,0.00,VWS V14.01,2013-03-09 16:05:00,
2013-03-09 11:10:00,64.6,29.2,30.18,East,83,5.4,6.3,26,0.00,,---,0.00,VWS V14.01,2013-03-09 16:10:00,
2013-03-09 11:15:00,64.9,29.5,30.18,North,1,3.1,4.9,26,0.00,,---,0.00,VWS V14.01,2013-03-09 16:15:00,
2013-03-09 11:20:00,65.1,29.6,30.18,ENE,64,6.3,6.3,26,0.00,,---,0.00,VWS V14.01,2013-03-09 16:20:00,
2013-03-09 11:25:00,65.7,30.1,30.18,NE,43,3.6,4.0,26,0.00,,---,0.00,VWS V14.01,2013-03-09 16:25:00,
2013-03-09 11:30:00,65.8,30.3,30.18,NNE,24,5.8,6.7,26,0.00,,---,0.00,VWS V14.01,2013-03-09 16:30:00,
2013-03-09 11:35:00,66.2,29.6,30.18,ENE,76,4.9,4.9,25,0.00,,---,0.00,VWS V14.01,2013-03-09 16:35:00,
2013-03-09 11:40:00,68.5,30.5,30.18,NE,51,5.4,5.4,24,0.00,,---,0.00,VWS V14.01,2013-03-09 16:40:00,
2013-03-09 11:45:00,69.8,30.5,30.18,NNE,14,2.7,4.0,23,0.00,,---,0.00,VWS V14.01,2013-03-09 16:45:00,
2013-03-09 11:50:00,69.4,30.2,30.18,NE,38,4.0,5.4,23,0.00,,---,0.00,VWS V14.01,2013-03-09 16:50:00,
2013-03-09 11:55:00,68.9,30.8,30.18,East,91,3.6,4.0,24,0.00,,---,0.00,VWS V14.01,2013-03-09 16:55:00,
2013-03-09 12:00:00,70.2,30.8,30.18,NE,36,3.6,5.4,23,0.00,,---,0.00,VWS V14.01,2013-03-09 17:00:00,
2013-03-09 12:05:00,72.7,29.3,30.18,NNW,335,7.6,7.6,20,0.00,,---,0.00,VWS V14.01,2013-03-09 17:05:00,
2013-03-09 12:10:00,74.7,29.6,30.18,NE,36,5.8,5.8,19,0.00,,---,0.00,VWS V14.01,2013-03-09 17:10:00,
2013-03-09 12:15:00,73.8,28.8,30.18,NNE,31,6.3,8.7,19,0.00,,---,0.00,VWS V14.01,2013-03-09 17:15:00,
2013-03-09 12:20:00,73.6,28.7,30.18,NE,46,4.9,4.9,19,0.00,,---,0.00,VWS V14.01,2013-03-09 17:20:00,
2013-03-09 12:25:00,72.9,29.4,30.18,NE,39,4.0,4.0,20,0.00,,---,0.00,VWS V14.01,2013-03-09 17:25:00,
2013-03-09 12:30:00,72.5,29.1,30.18,ENE,60,4.0,5.4,20,0.00,,---,0.00,VWS V14.01,2013-03-09 17:30:00,
2013-03-09 12:35:00,71.4,28.2,30.18,NE,49,5.8,5.8,20,0.00,,---,0.00,VWS V14.01,2013-03-09 17:35:00,
2013-03-09 12:40:00,70.9,27.8,30.15,East,90,2.2,2.2,20,0.00,,---,0.00,VWS V14.01,2013-03-09 17:40:00,
2013-03-09 12:45:00,69.6,30.3,30.15,East,87,3.1,4.9,23,0.00,,---,0.00,VWS V14.01,2013-03-09 17:45:00,
2013-03-09 12:50:00,68.9,29.7,30.15,NE,37,6.3,6.3,23,0.00,,---,0.00,VWS V14.01,2013-03-09 17:50:00,
2013-03-09 12:55:00,68.4,30.4,30.15,NE,52,3.6,3.6,24,0.00,,---,0.00,VWS V14.01,2013-03-09 17:55:00,
2013-03-09 13:00:00,67.6,30.8,30.15,NE,39,8.3,8.3,25,0.00,,---,0.00,VWS V14.01,2013-03-09 18:00:00,
2013-03-09 13:05:00,67.3,30.5,30.15,NE,51,7.2,8.7,25,0.00,,---,0.00,VWS V14.01,2013-03-09 18:05:00,
2013-03-09 13:10:00,67.5,30.6,30.15,ENE,76,3.1,3.1,25,0.00,,---,0.00,VWS V14.01,2013-03-09 18:10:00,
2013-03-09 13:15:00,67.6,30.8,30.15,NE,51,7.6,8.1,25,0.00,,---,0.00,VWS V14.01,2013-03-09 18:15:00,
2013-03-09 13:20:00,67.5,30.6,30.15,ENE,64,6.3,6.3,25,0.00,,---,0.00,VWS V14.01,2013-03-09 18:20:00,
2013-03-09 13:25:00,67.6,30.8,30.15,NE,43,4.9,5.8,25,0.00,,---,0.00,VWS V14.01,2013-03-09 18:25:00,
2013-03-09 13:30:00,67.5,30.6,30.15,ESE,102,5.4,5.4,25,0.00,,---,0.00,VWS V14.01,2013-03-09 18:30:00,
2013-03-09 13:35:00,67.1,30.3,30.15,ENE,58,4.9,8.1,25,0.00,,---,0.00,VWS V14.01,2013-03-09 18:35:00,
2013-03-09 13:40:00,67.1,30.3,30.15,NE,37,11.0,11.0,25,0.00,,---,0.00,VWS V14.01,2013-03-09 18:40:00,
2013-03-09 13:45:00,66.9,30.2,30.15,NE,51,4.0,5.8,25,0.00,,---,0.00,VWS V14.01,2013-03-09 18:45:00,
2013-03-09 13:50:00,67.1,30.3,30.15,ENE,69,6.3,6.7,25,0.00,,---,0.00,VWS V14.01,2013-03-09 18:50:00,
2013-03-09 13:55:00,66.6,30.9,30.12,East,90,4.0,5.4,26,0.00,,---,0.00,VWS V14.01,2013-03-09 18:55:00,
2013-03-09 14:00:00,66.4,30.7,30.12,NNE,17,7.6,7.6,26,0.00,,---,0.00,VWS V14.01,2013-03-09 19:00:00,
2013-03-09 14:05:00,66.2,30.6,30.12,ENE,62,4.0,4.0,26,0.00,,---,0.00,VWS V14.01,2013-03-09 19:05:00,
2013-03-09 14:10:00,66.2,29.6,30.12,East,85,2.7,2.7,25,0.00,,---,0.00,VWS V14.01,2013-03-09 19:10:00,
2013-03-09 14:15:00,66.2,30.6,30.12,ENE,72,2.2,2.2,26,0.00,,---,0.00,VWS V14.01,2013-03-09 19:15:00,
2013-03-09 14:20:00,66.0,31.4,30.12,ENE,59,6.7,6.7,27,0.00,,---,0.00,VWS V14.01,2013-03-09 19:20:00,
2013-03-09 14:25:00,65.7,31.1,30.12,NE,40,4.0,4.0,27,0.00,,---,0.00,VWS V14.01,2013-03-09 19:25:00,
2013-03-09 14:30:00,65.5,31.9,30.12,East,80,4.5,4.5,28,0.00,,---,0.00,VWS V14.01,2013-03-09 19:30:00,
2013-03-09 14:35:00,65.1,31.5,30.12,NE,47,7.2,7.2,28,0.00,,---,0.00,VWS V14.01,2013-03-09 19:35:00,
2013-03-09 14:40:00,65.1,31.5,30.12,ENE,62,5.8,5.8,28,0.00,,---,0.00,VWS V14.01,2013-03-09 19:40:00,
2013-03-09 14:45:00,65.1,31.5,30.12,ENE,62,8.1,8.1,28,0.00,,---,0.00,VWS V14.01,2013-03-09 19:45:00,
2013-03-09 14:50:00,64.9,32.3,30.12,ENE,71,5.8,5.8,29,0.00,,---,0.00,VWS V14.01,2013-03-09 19:50:00,
2013-03-09 14:55:00,64.8,32.1,30.12,ESE,103,2.7,3.6,29,0.00,,---,0.00,VWS V14.01,2013-03-09 19:55:00,
2013-03-09 15:00:00,64.8,33.0,30.12,NE,54,5.8,6.3,30,0.00,,---,0.00,VWS V14.01,2013-03-09 20:00:00,
2013-03-09 15:05:00,64.4,32.7,30.12,NE,54,5.4,6.3,30,0.00,,---,0.00,VWS V14.01,2013-03-09 20:05:00,
2013-03-09 15:10:00,63.9,33.9,30.12,NNE,32,5.4,9.2,33,0.00,,---,0.00,VWS V14.01,2013-03-09 20:10:00,
2013-03-09 15:15:00,63.3,34.2,30.12,NE,40,8.1,8.1,34,0.00,,---,0.00,VWS V14.01,2013-03-09 20:15:00,
2013-03-09 15:20:00,63.3,35.0,30.12,ESE,110,4.0,6.3,35,0.00,,---,0.00,VWS V14.01,2013-03-09 20:20:00,
2013-03-09 15:25:00,63.0,34.7,30.12,NE,37,6.3,7.6,35,0.00,,---,0.00,VWS V14.01,2013-03-09 20:25:00,
2013-03-09 15:30:00,62.8,35.2,30.12,ESE,116,3.1,5.4,36,0.00,,---,0.00,VWS V14.01,2013-03-09 20:30:00,
2013-03-09 15:35:00,62.6,35.1,30.12,East,84,6.3,6.3,36,0.00,,---,0.00,VWS V14.01,2013-03-09 20:35:00,
2013-03-09 15:40:00,62.1,35.3,30.12,ENE,57,5.4,8.7,37,0.00,,---,0.00,VWS V14.01,2013-03-09 20:40:00,
2013-03-09 15:45:00,61.9,35.2,30.12,ENE,75,4.0,8.7,37,0.00,,---,0.00,VWS V14.01,2013-03-09 20:45:00,
2013-03-09 15:50:00,61.9,35.2,30.12,NE,54,7.6,8.3,37,0.00,,---,0.00,VWS V14.01,2013-03-09 20:50:00,
2013-03-09 15:55:00,61.5,34.9,30.12,ENE,62,8.1,8.1,37,0.00,,---,0.00,VWS V14.01,2013-03-09 20:55:00,
2013-03-09 16:00:00,61.2,35.2,30.12,ENE,71,3.6,4.9,38,0.00,,---,0.00,VWS V14.01,2013-03-09 21:00:00,
2013-03-09 16:05:00,61.2,35.2,30.12,North,353,4.0,5.8,38,0.00,,---,0.00,VWS V14.01,2013-03-09 21:05:00,
2013-03-09 16:10:00,61.2,35.2,30.12,NE,45,4.5,7.6,38,0.00,,---,0.00,VWS V14.01,2013-03-09 21:10:00,
2013-03-09 16:15:00,61.2,35.2,30.12,ENE,60,4.5,4.5,38,0.00,,---,0.00,VWS V14.01,2013-03-09 21:15:00,
2013-03-09 16:20:00,61.0,35.8,30.12,ENE,72,3.1,4.9,39,0.00,,---,0.00,VWS V14.01,2013-03-09 21:20:00,
2013-03-09 16:25:00,61.0,35.1,30.12,ENE,75,2.7,5.4,38,0.00,,---,0.00,VWS V14.01,2013-03-09 21:25:00,
2013-03-09 16:30:00,61.3,35.4,30.12,ENE,68,4.0,4.0,38,0.00,,---,0.00,VWS V14.01,2013-03-09 21:30:00,
2013-03-09 16:35:00,61.0,35.1,30.12,ENE,71,3.1,5.4,38,0.00,,---,0.00,VWS V14.01,2013-03-09 21:35:00,
2013-03-09 16:40:00,61.0,35.8,30.12,ENE,59,5.8,10.1,39,0.00,,---,0.00,VWS V14.01,2013-03-09 21:40:00,
2013-03-09 16:45:00,60.4,36.0,30.12,NNE,29,4.9,7.6,40,0.00,,---,0.00,VWS V14.01,2013-03-09 21:45:00,
2013-03-09 16:50:00,60.3,35.8,30.12,NE,47,5.8,7.6,40,0.00,,---,0.00,VWS V14.01,2013-03-09 21:50:00,
2013-03-09 16:55:00,60.1,35.6,30.12,NE,55,6.3,8.7,40,0.00,,---,0.00,VWS V14.01,2013-03-09 21:55:00,
2013-03-09 17:00:00,60.1,35.6,30.12,ENE,65,8.1,8.7,40,0.00,,---,0.00,VWS V14.01,2013-03-09 22:00:00,
2013-03-09 17:05:00,59.9,36.1,30.12,NNE,16,6.3,6.3,41,0.00,,---,0.00,VWS V14.01,2013-03-09 22:05:00,
2013-03-09 17:10:00,59.9,35.5,30.12,NNE,30,4.0,4.0,40,0.00,,---,0.00,VWS V14.01,2013-03-09 22:10:00,
2013-03-09 17:15:00,59.9,35.5,30.12,NNE,16,4.0,4.0,40,0.00,,---,0.00,VWS V14.01,2013-03-09 22:15:00,
2013-03-09 17:20:00,59.7,35.3,30.12,ENE,71,3.6,5.8,40,0.00,,---,0.00,VWS V14.01,2013-03-09 22:20:00,
2013-03-09 17:25:00,59.7,34.7,30.12,NE,52,2.7,6.3,39,0.00,,---,0.00,VWS V14.01,2013-03-09 22:25:00,
2013-03-09 17:30:00,59.5,33.8,30.12,NE,42,10.5,11.0,38,0.00,,---,0.00,VWS V14.01,2013-03-09 22:30:00,
2013-03-09 17:35:00,59.4,33.6,30.12,East,94,4.0,5.8,38,0.00,,---,0.00,VWS V14.01,2013-03-09 22:35:00,
2013-03-09 17:40:00,59.0,33.3,30.12,North,8,6.3,11.0,38,0.00,,---,0.00,VWS V14.01,2013-03-09 22:40:00,
2013-03-09 17:45:00,58.8,33.2,30.12,East,82,3.1,6.3,38,0.00,,---,0.00,VWS V14.01,2013-03-09 22:45:00,
2013-03-09 17:50:00,58.5,33.5,30.12,ENE,75,4.0,4.0,39,0.00,,---,0.00,VWS V14.01,2013-03-09 22:50:00,
2013-03-09 17:55:00,58.5,33.5,30.15,NE,52,2.2,2.7,39,0.00,,---,0.00,VWS V14.01,2013-03-09 22:55:00,
2013-03-09 18:00:00,58.3,32.7,30.15,ENE,70,5.8,5.8,38,0.00,,---,0.00,VWS V14.01,2013-03-09 23:00:00,
2013-03-09 18:05:00,58.1,33.2,30.15,NE,40,5.4,8.7,39,0.00,,---,0.00,VWS V14.01,2013-03-09 23:05:00,
2013-03-09 18:10:00,57.9,32.4,30.15,NE,52,5.4,8.3,38,0.00,,---,0.00,VWS V14.01,2013-03-09 23:10:00,
2013-03-09 18:15:00,57.9,32.4,30.15,NE,56,2.2,3.1,38,0.00,,---,0.00,VWS V14.01,2013-03-09 23:15:00,
2013-03-09 18:20:00,57.7,32.9,30.15,NE,46,5.8,5.8,39,0.00,,---,0.00,VWS V14.01,2013-03-09 23:20:00,
2013-03-09 18:25:00,57.6,32.7,30.15,NE,45,5.4,5.4,39,0.00,,---,0.00,VWS V14.01,2013-03-09 23:25:00,
2013-03-09 18:30:00,57.6,33.4,30.15,ENE,70,5.4,5.4,40,0.00,,---,0.00,VWS V14.01,2013-03-09 23:30:00,
2013-03-09 18:35:00,57.4,33.2,30.15,NE,55,0.0,3.6,40,0.00,,---,0.00,VWS V14.01,2013-03-09 23:35:00,
2013-03-09 18:40:00,57.2,33.7,30.15,NE,42,0.0,2.7,41,0.00,,---,0.00,VWS V14.01,2013-03-09 23:40:00,
2013-03-09 18:45:00,57.0,33.5,30.15,East,79,0.0,0.0,41,0.00,,---,0.00,VWS V14.01,2013-03-09 23:45:00,
2013-03-09 18:50:00,57.0,34.2,30.15,ENE,71,2.7,4.0,42,0.00,,---,0.00,VWS V14.01,2013-03-09 23:50:00,
2013-03-09 18:55:00,56.8,34.0,30.12,NE,51,3.6,3.6,42,0.00,,---,0.00,VWS V14.01,2013-03-09 23:55:00,
2013-03-09 19:00:00,56.8,34.0,30.12,NE,42,0.0,3.6,42,0.00,,---,0.00,VWS V14.01,2013-03-10 00:00:00,
2013-03-09 19:05:00,56.8,34.6,30.12,NNE,12,4.9,5.4,43,0.00,,---,0.00,VWS V14.01,2013-03-10 00:05:00,
2013-03-09 19:10:00,56.8,35.8,30.15,East,82,3.1,6.3,45,0.00,,---,0.00,VWS V14.01,2013-03-10 00:10:00,
2013-03-09 19:15:00,56.8,35.8,30.15,ENE,59,3.1,3.1,45,0.00,,---,0.00,VWS V14.01,2013-03-10 00:15:00,
2013-03-09 19:20:00,56.7,36.2,30.15,NE,52,2.7,4.9,46,0.00,,---,0.00,VWS V14.01,2013-03-10 00:20:00,
2013-03-09 19:25:00,56.7,36.8,30.15,NE,42,0.0,0.0,47,0.00,,---,0.00,VWS V14.01,2013-03-10 00:25:00,
2013-03-09 19:30:00,56.7,36.8,30.15,NE,49,3.6,3.6,47,0.00,,---,0.00,VWS V14.01,2013-03-10 00:30:00,
2013-03-09 19:35:00,56.5,36.7,30.15,NE,42,0.0,0.0,47,0.00,,---,0.00,VWS V14.01,2013-03-10 00:35:00,
2013-03-09 19:40:00,56.5,37.2,30.15,NE,36,2.2,2.2,48,0.00,,---,0.00,VWS V14.01,2013-03-10 00:40:00,
2013-03-09 19:45:00,56.5,37.2,30.15,NE,36,0.0,0.0,48,0.00,,---,0.00,VWS V14.01,2013-03-10 00:45:00,
2013-03-09 19:50:00,56.3,37.0,30.15,NNE,30,2.7,2.7,48,0.00,,---,0.00,VWS V14.01,2013-03-10 00:50:00,
2013-03-09 19:55:00,56.3,37.6,30.15,ENE,60,2.7,2.7,49,0.00,,---,0.00,VWS V14.01,2013-03-10 00:55:00,
2013-03-09 20:00:00,56.3,37.6,30.15,NE,48,0.0,0.0,49,0.00,,---,0.00,VWS V14.01,2013-03-10 01:00:00,
2013-03-09 20:05:00,56.3,37.6,30.15,NE,55,3.1,3.1,49,0.00,,---,0.00,VWS V14.01,2013-03-10 01:05:00,
2013-03-09 20:10:00,56.1,37.4,30.15,NE,52,0.0,4.0,49,0.00,,---,0.00,VWS V14.01,2013-03-10 01:10:00,
2013-03-09 20:15:00,56.3,38.1,30.15,NE,44,2.7,2.7,50,0.00,,---,0.00,VWS V14.01,2013-03-10 01:15:00,
2013-03-09 20:20:00,56.1,38.5,30.15,North,357,3.1,4.9,51,0.00,,---,0.00,VWS V14.01,2013-03-10 01:20:00,
2013-03-09 20:25:00,56.1,38.5,30.15,NE,46,3.6,3.6,51,0.00,,---,0.00,VWS V14.01,2013-03-10 01:25:00,
2013-03-09 20:30:00,56.3,38.7,30.15,ENE,69,5.4,5.4,51,0.00,,---,0.00,VWS V14.01,2013-03-10 01:30:00,
2013-03-09 20:35:00,56.3,38.7,30.15,NE,54,0.0,0.0,51,0.00,,---,0.00,VWS V14.01,2013-03-10 01:35:00,
2013-03-09 20:40:00,56.3,39.2,30.15,ENE,59,4.0,4.0,52,0.00,,---,0.00,VWS V14.01,2013-03-10 01:40:00,
2013-03-09 20:45:00,56.3,39.2,30.15,ENE,74,4.0,4.0,52,0.00,,---,0.00,VWS V14.01,2013-03-10 01:45:00,
2013-03-09 20:50:00,56.3,39.2,30.15,NE,49,0.0,3.1,52,0.00,,---,0.00,VWS V14.01,2013-03-10 01:50:00,
2013-03-09 20:55:00,56.3,39.2,30.15,NE,56,2.2,4.0,52,0.00,,---,0.00,VWS V14.01,2013-03-10 01:55:00,
2013-03-09 21:00:00,56.3,39.7,30.15,NE,54,2.2,3.6,54,0.00,,---,0.00,VWS V14.01,2013-03-10 02:00:00,
2013-03-09 21:05:00,56.3,40.2,30.15,ENE,73,3.6,4.9,55,0.00,,---,0.00,VWS V14.01,2013-03-10 02:05:00,
2013-03-09 21:10:00,56.3,40.2,30.15,ENE,63,2.2,2.2,55,0.00,,---,0.00,VWS V14.01,2013-03-10 02:10:00,
2013-03-09 21:15:00,56.3,40.2,30.15,ENE,58,0.0,3.1,55,0.00,,---,0.00,VWS V14.01,2013-03-10 02:15:00,
2013-03-09 21:20:00,56.3,40.7,30.15,ENE,57,2.2,2.7,56,0.00,,---,0.00,VWS V14.01,2013-03-10 02:20:00,
2013-03-09 21:25:00,56.1,41.0,30.15,NE,49,0.0,3.1,57,0.00,,---,0.00,VWS V14.01,2013-03-10 02:25:00,
2013-03-09 21:30:00,56.1,41.5,30.15,ENE,73,2.2,4.0,58,0.00,,---,0.00,VWS V14.01,2013-03-10 02:30:00,
2013-03-09 21:35:00,56.1,41.5,30.15,NE,52,0.0,2.7,58,0.00,,---,0.00,VWS V14.01,2013-03-10 02:35:00,
2013-03-09 21:40:00,55.9,41.8,30.12,ENE,68,3.6,3.6,59,0.00,,---,0.00,VWS V14.01,2013-03-10 02:40:00,
2013-03-09 21:45:00,55.9,41.8,30.12,NE,49,2.7,4.9,59,0.00,,---,0.00,VWS V14.01,2013-03-10 02:45:00,
2013-03-09 21:50:00,55.9,41.8,30.12,NE,43,5.4,5.4,59,0.00,,---,0.00,VWS V14.01,2013-03-10 02:50:00,
2013-03-09 21:55:00,55.9,42.2,30.12,NE,49,4.5,4.5,60,0.00,,---,0.00,VWS V14.01,2013-03-10 02:55:00,
2013-03-09 22:00:00,55.9,42.2,30.12,ENE,67,2.7,3.6,60,0.00,,---,0.00,VWS V14.01,2013-03-10 03:00:00,
2013-03-09 22:05:00,55.9,42.7,30.12,NE,49,0.0,3.6,61,0.00,,---,0.00,VWS V14.01,2013-03-10 03:05:00,
2013-03-09 22:10:00,55.9,42.7,30.12,ESE,106,3.6,4.0,61,0.00,,---,0.00,VWS V14.01,2013-03-10 03:10:00,
2013-03-09 22:16:00,56.1,43.7,30.12,NNE,12,0.0,4.9,63,0.00,,---,0.00,VWS V14.01,2013-03-10 03:16:00,
2013-03-09 22:21:00,56.1,43.7,30.12,NNE,29,2.7,3.6,63,0.00,,---,0.00,VWS V14.01,2013-03-10 03:21:00,
2013-03-09 22:26:00,56.1,43.7,30.12,ENE,59,5.4,5.4,63,0.00,,---,0.00,VWS V14.01,2013-03-10 03:26:00,
2013-03-09 22:31:00,56.1,44.1,30.12,NE,46,0.0,0.0,64,0.00,,---,0.00,VWS V14.01,2013-03-10 03:31:00,
2013-03-09 22:36:00,56.1,43.7,30.12,ENE,59,0.0,3.1,63,0.00,,---,0.00,VWS V14.01,2013-03-10 03:36:00,
2013-03-09 22:41:00,56.1,43.7,30.12,ENE,58,0.0,0.0,63,0.00,,---,0.00,VWS V14.01,2013-03-10 03:41:00,
2013-03-09 22:46:00,55.9,43.5,30.12,ENE,59,0.0,0.0,63,0.00,,---,0.00,VWS V14.01,2013-03-10 03:46:00,
2013-03-09 22:51:00,56.1,44.1,30.12,NE,49,0.0,0.0,64,0.00,,---,0.00,VWS V14.01,2013-03-10 03:51:00,
2013-03-09 22:56:00,55.9,44.0,30.12,NE,49,0.0,0.0,64,0.00,,---,0.00,VWS V14.01,2013-03-10 03:56:00,
2013-03-09 23:01:00,55.9,44.0,30.12,NE,49,0.0,0.0,64,0.00,,---,0.00,VWS V14.01,2013-03-10 04:01:00,
2013-03-09 23:06:00,55.8,43.8,30.12,NE,50,0.0,0.0,64,0.00,,---,0.00,VWS V14.01,2013-03-10 04:06:00,
2013-03-09 23:11:00,55.6,44.1,30.12,NE,49,0.0,0.0,65,0.00,,---,0.00,VWS V14.01,2013-03-10 04:11:00,
2013-03-09 23:16:00,55.6,44.5,30.12,NE,44,0.0,0.0,66,0.00,,---,0.00,VWS V14.01,2013-03-10 04:16:00,
2013-03-09 23:21:00,55.6,44.9,30.12,NE,56,0.0,0.0,67,0.00,,---,0.00,VWS V14.01,2013-03-10 04:21:00,
2013-03-09 23:26:00,55.4,44.3,30.12,NE,56,0.0,0.0,66,0.00,,---,0.00,VWS V14.01,2013-03-10 04:26:00,
2013-03-09 23:31:00,55.4,44.3,30.12,NE,56,0.0,0.0,66,0.00,,---,0.00,VWS V14.01,2013-03-10 04:31:00,
2013-03-09 23:36:00,55.2,44.1,30.12,NE,56,0.0,0.0,66,0.00,,---,0.00,VWS V14.01,2013-03-10 04:36:00,
2013-03-09 23:41:00,55.0,44.0,30.12,NE,56,0.0,0.0,66,0.00,,---,0.00,VWS V14.01,2013-03-10 04:41:00,
2013-03-09 23:46:00,54.9,44.2,30.12,NE,56,0.0,0.0,67,0.00,,---,0.00,VWS V14.01,2013-03-10 04:46:00,
2013-03-09 23:51:00,54.7,43.6,30.12,NE,56,0.0,0.0,66,0.00,,---,0.00,VWS V14.01,2013-03-10 04:51:00,
2013-03-09 23:56:00,54.3,43.3,30.12,NE,56,0.0,0.0,66,0.00,,---,0.00,VWS V14.01,2013-03-10 04:56:00,